Raton, NM

10:09 PM MDT on June 28, 2017 (GMT -0600)
Raton Municipal-Crews

Weather History for KRTN - September, 2012

Change the Weather History Date:

Monday, September 10, 2012

  Actual Average (KTAD) Record (KTAD)
Temperature  
Mean Temperature 65 °F -  
Max Temperature 86 °F 83 °F 92 °F (1988)
Min Temperature 46 °F 52 °F 32 °F (1962)
Growing Degree Days 15 (Base 50)    
Moisture  
Dew Point 36 °F    
Average Humidity 37    
Maximum Humidity 61    
Minimum Humidity 15    
Precipitation  
Precipitation 0.00 in - - ()
Sea Level Pressure  
Sea Level Pressure 29.95 in    
Wind  
Wind Speed 5 mph (SSW)    
Max Wind Speed 17 mph    
Max Gust Speed 18 mph    
Visibility 10 miles    
Events      
Averages and records for this station are not official NWS values.
T = Trace of Precipitation, MM = Missing Value Source: NWS Daily Summary

Daily Weather History Graph

Daily Weather History Graph

Search for Another Location

Airport or City:

Trip Planner

Search our weather history database for the weather conditions in past years. The results will help you decide how hot, cold, wet, or windy it might be!

Date:

Astronomy

Sep. 10, 2012 Rise Set
Actual Time 6:36 AM MDT 7:12 PM MDT
Civil Twilight 6:10 AM MDT 7:38 PM MDT
Nautical Twilight 5:39 AM MDT 8:08 PM MDT
Astronomical Twilight 5:08 AM MDT 8:40 PM MDT
Moon 1:06 AM MDT (9/10) 3:37 PM MDT (9/10)
Length of Visible Light 13h 27m
Length of Day
12h 35m
Waning Crescent, 29% of the Moon is Illuminated
Sep 10
Waning Crescent
Sep 15
New
Sep 22
First Quarter
Sep 29
Full
Oct 8
Last Quarter

Hourly Weather History & Observations

Time (MDT) Temp. Windchill Dew Point Humidity Pressure Visibility Wind Dir Wind Speed Gust Speed Precip Events Conditions
12:53 AM 55.0 °F - 28.9 °F 37% 30.07 in 10.0 mi Calm Calm - N/A   Clear
1:53 AM 50.0 °F - 30.0 °F 46% 30.07 in 10.0 mi Calm Calm - N/A   Clear
2:53 AM 50.0 °F - 30.9 °F 48% 30.05 in 10.0 mi North 5.8 mph - N/A   Clear
3:53 AM 46.9 °F - 30.9 °F 54% 30.04 in 10.0 mi NNE 5.8 mph - N/A   Clear
4:53 AM 46.9 °F - 33.1 °F 59% 30.04 in 10.0 mi North 4.6 mph - N/A   Clear
5:53 AM 46.0 °F 42.5 °F 33.1 °F 61% 30.05 in 10.0 mi North 6.9 mph - N/A   Clear
6:53 AM 46.9 °F - 33.1 °F 59% 30.06 in 10.0 mi NE 3.5 mph - N/A   Clear
7:53 AM 51.1 °F - 32.0 °F 48% 30.06 in 10.0 mi East 3.5 mph - N/A   Clear
8:53 AM 59.0 °F - 35.1 °F 41% 30.04 in 10.0 mi ENE 4.6 mph - N/A   Clear
9:53 AM 64.9 °F - 37.9 °F 37% 30.02 in 10.0 mi Calm Calm - N/A   Clear
10:53 AM 70.0 °F - 37.9 °F 31% 29.99 in 10.0 mi Calm Calm - N/A   Clear
11:53 AM 75.9 °F - 39.9 °F 27% 29.95 in 10.0 mi SSW 9.2 mph - N/A   Clear
12:53 PM 80.1 °F - 37.0 °F 21% 29.91 in 10.0 mi SSW 12.7 mph - N/A   Clear
1:53 PM 84.0 °F - 30.9 °F 15% 29.89 in 10.0 mi SSW 9.2 mph - N/A   Clear
2:53 PM 84.9 °F - 32.0 °F 15% 29.86 in 10.0 mi Variable 6.9 mph - N/A   Clear
3:53 PM 82.0 °F - 30.9 °F 16% 29.85 in 10.0 mi South 6.9 mph 16.1 mph N/A   Partly Cloudy
4:53 PM 84.9 °F - 33.1 °F 16% 29.83 in 10.0 mi South 12.7 mph 18.4 mph N/A   Mostly Cloudy
5:53 PM 82.0 °F - 34.0 °F 18% 29.84 in 10.0 mi South 8.1 mph - N/A   Clear
6:53 PM 78.1 °F - 41.0 °F 27% 29.84 in 10.0 mi South 16.1 mph - N/A   Clear
7:53 PM 73.9 °F - 41.0 °F 30% 29.84 in 10.0 mi South 10.4 mph - N/A   Partly Cloudy
8:53 PM 73.0 °F - 44.1 °F 35% 29.85 in 10.0 mi South 17.3 mph - N/A   Clear
9:53 PM 68.0 °F - 45.0 °F 43% 29.87 in 10.0 mi WSW 9.2 mph - N/A   Partly Cloudy
10:53 PM 63.0 °F - 46.0 °F 54% 29.87 in 10.0 mi West 8.1 mph - N/A   Clear
11:53 PM 61.0 °F - 45.0 °F 56% 29.86 in 10.0 mi WNW 5.8 mph - N/A   Clear